GFSNGP_700_temp_246.txt.gz
Temp
7 8 9 9 10 9 8 8 7 8 8 9 9 9 8 8 8 8 8 8 8 8 7 6 6 6 6 6 6 7 7 7 7 6 6 7 6 6 6 6 5 5 4 4
6 7 7 8 8 8 9 8 8 8 8 9 9 8 8 8 7 7 7 7 6 6 5 5 5 5 6 6 6 6 6 6 6 6 6 6 7 6 6 4 4 4 4 4
5 6 6 5 7 8 8 7 8 8 8 8 8 8 7 7 6 6 6 5 4 3 4 4 5 5 5 5 5 6 6 5 6 6 6 6 6 6 5 4 4 4 4 3
4 4 2 7 8 8 8 7 7 7 7 7 7 6 6 6 6 5 5 4 3 3 4 4 4 4 4 4 5 5 5 5 5 4 4 4 4 5 5 5 4 4 3 3
4 4 5 6 6 6 7 7 7 6 6 6 6 5 5 5 4 4 3 3 3 3 3 3 2 3 4 3 4 4 4 4 4 4 4 3 3 3 2 3 3 3 3 2
3 3 3 4 6 6 5 6 6 6 6 5 5 5 4 4 4 3 3 2 2 2 1 1 1 2 3 3 3 4 4 4 4 3 3 3 2 2 2 1 1 1 1 0
3 4 4 5 5 5 5 6 6 5 5 5 4 4 4 3 3 3 3 2 2 1 2 2 1 2 2 2 2 3 3 3 3 3 2 2 1 1 1 0 0 0 -0 -1
2 2 1 4 4 4 5 5 5 4 4 4 3 3 3 3 2 2 2 1 -0 -0 -0 -1 1 1 2 2 2 2 2 2 1 1 1 1 1 -0 -1 -1 -1 -1 -1 -2
3 4 4 4 4 4 4 4 4 3 3 3 2 2 2 1 1 1 0 0 -0 -1 -1 0 0 0 0 0 0 -0 -0 -0 -0 -1 -1 -1 -2 -3 -3 -3 -3 -3 -4 -3
3 4 3 3 3 3 3 3 3 2 2 1 1 0 0 0 -1 -1 -1 -1 -1 -1 -1 -1 -1 -1 -1 -1 -1 -2 -2 -2 -3 -3 -3 -4 -4 -5 -5 -5 -5 -5 -5 -4
2 3 3 2 2 2 2 2 2 1 1 0 -0 -1 -1 -1 -1 -1 -2 -1 -1 -2 -3 -3 -3 -3 -3 -4 -4 -4 -4 -4 -5 -5 -5 -5 -6 -6 -6 -7 -6 -7 -6 -7
2 2 2 1 0 0 0 0 0 -1 -1 -1 -2 -1 -2 -2 -2 -3 -4 -4 -4 -4 -4 -4 -5 -5 -5 -5 -5 -5 -5 -5 -5 -6 -6 -6 -8 -8 -8 -8 -8 -8 -8 -8
-1 -0 -0 -1 -1 -1 -1 -1 -2 -2 -2 -2 -2 -2 -2 -4 -5 -6 -5 -5 -5 -5 -6 -6 -6 -6 -6 -6 -6 -6 -6 -6 -7 -7 -7 -9 -8 -8 -8 -8 -8 -8 -8 -9
-1 -1 -1 -2 -1 -1 -2 -2 -2 -2 -3 -3 -4 -5 -6 -6 -6 -6 -6 -6 -6 -7 -6 -7 -7 -7 -7 -7 -7 -7 -7 -7 -8 -8 -8 -8 -8 -8 -9 -9 -9 -9 -9 -9
-1 -1 -1 -1 -1 -2 -3 -3 -3 -3 -4 -5 -6 -6 -6 -6 -6 -6 -6 -6 -7 -7 -7 -7 -7 -8 -8 -8 -8 -8 -8 -8 -9 -9 -9 -9 -9 -9 -9 -9 -9 -9 -10 -10
-2 -2 -2 -3 -3 -4 -4 -4 -4 -5 -5 -5 -6 -6 -6 -6 -6 -7 -7 -7 -7 -7 -8 -8 -8 -8 -8 -8 -9 -9 -9 -9 -10 -10 -10 -10 -10 -10 -10 -11 -11 -11 -11 -11
-3 -3 -4 -4 -4 -5 -5 -5 -5 -5 -6 -6 -6 -6 -6 -6 -7 -7 -7 -8 -8 -8 -9 -9 -9 -9 -9 -10 -10 -10 -10 -10 -10 -10 -11 -11 -11 -11 -11 -11 -11 -11 -11 -11
-5 -5 -5 -6 -6 -6 -6 -6 -6 -6 -6 -6 -6 -7 -7 -7 -8 -8 -8 -9 -9 -9 -9 -9 -10 -10 -10 -10 -10 -10 -10 -11 -11 -11 -12 -12 -12 -12 -12 -12 -12 -12 -12 -12
-6 -6 -6 -6 -6 -6 -6 -6 -6 -6 -7 -7 -7 -8 -8 -8 -9 -9 -9 -9 -10 -10 -10 -11 -11 -11 -10 -11 -11 -11 -11 -11 -11 -12 -12 -12 -12 -12 -13 -13 -13 -13 -12 -12
-7 -6 -6 -6 -6 -6 -6 -6 -7 -7 -8 -8 -8 -9 -9 -9 -9 -10 -10 -10 -10 -10 -10 -10 -10 -10 -11 -11 -11 -11 -11 -11 -11 -11 -12 -12 -12 -12 -13 -13 -13 -13 -13 -13
-7 -6 -6 -6 -6 -6 -7 -7 -8 -8 -9 -9 -9 -9 -9 -10 -10 -10 -10 -10 -10 -10 -10 -10 -10 -11 -11 -11 -11 -11 -12 -12 -12 -12 -12 -13 -13 -13 -13 -13 -13 -13 -13 -13
-7 -7 -7 -6 -7 -7 -8 -8 -9 -9 -9 -10 -10 -10 -10 -10 -10 -10 -10 -10 -10 -11 -11 -11 -12 -12 -12 -13 -13 -14 -14 -14 -14 -15 -15 -15 -15 -15 -15 -15 -15 -14 -14 -14
-7 -7 -7 -7 -8 -9 -9 -9 -9 -9 -10 -10 -10 -11 -11 -11 -11 -11 -11 -11 -11 -12 -12 -13 -13 -14 -15 -15 -16 -16 -16 -17 -17 -17 -18 -18 -18 -18 -18 -18 -17 -17 -16 -15
-8 -8 -8 -9 -9 -9 -9 -10 -10 -10 -11 -11 -11 -11 -11 -11 -11 -11 -11 -12 -12 -13 -14 -15 -16 -16 -17 -18 -18 -19 -19 -19 -19 -20 -20 -20 -20 -20 -20 -20 -20 -19 -19 -18
-8 -9 -9 -10 -10 -10 -10 -10 -11 -11 -11 -11 -11 -11 -11 -11 -12 -12 -13 -13 -14 -15 -16 -17 -18 -18 -19 -20 -20 -21 -21 -21 -21 -21 -21 -21 -21 -21 -21 -21 -21 -21 -20 -20
-9 -9 -10 -10 -10 -10 -11 -11 -11 -11 -11 -11 -12 -12 -12 -12 -12 -13 -14 -15 -16 -17 -18 -19 -19 -20 -21 -21 -21 -21 -21 -21 -21 -21 -21 -21 -21 -21 -21 -21 -21 -21 -21 -20
-9 -10 -10 -10 -11 -11 -11 -11 -11 -11 -12 -12 -12 -12 -12 -13 -13 -14 -16 -17 -17 -18 -19 -20 -21 -21 -21 -21 -21 -21 -21 -21 -21 -21 -21 -21 -21 -21 -21 -21 -21 -21 -20 -21

GFSNGP_700_temp_249.txt.gz
Temp
5 6 7 7 8 8 7 8 7 9 7 8 8 9 8 8 8 8 8 7 7 7 7 7 7 6 5 5 5 6 6 6 6 7 7 7 6 6 6 6 6 6 5 4
5 5 5 6 7 7 8 7 6 7 7 8 8 8 8 8 8 7 7 6 6 6 6 6 5 4 4 5 5 5 5 5 6 6 6 6 6 6 6 6 6 6 5 4
3 4 5 4 6 7 7 7 7 7 8 8 7 8 7 7 7 6 6 6 6 5 4 4 4 4 4 4 4 4 4 4 5 5 5 5 5 5 5 6 5 5 4 4
1 3 3 5 6 7 7 7 7 8 8 7 6 7 6 6 6 6 5 5 4 4 3 3 3 3 3 3 3 3 3 4 4 4 4 4 4 4 5 4 5 5 4 4
-0 2 4 5 5 6 6 7 7 7 7 6 6 6 6 5 5 5 4 4 3 3 3 3 2 2 2 2 2 1 1 3 3 4 4 4 4 4 4 4 4 4 3 2
-1 -1 1 4 4 5 5 6 6 6 6 6 5 5 5 5 4 4 3 3 2 2 2 2 1 1 0 1 1 1 2 2 2 3 3 3 3 3 3 3 2 2 2 1
-1 -1 2 3 4 5 5 6 6 6 5 5 5 5 4 4 3 3 2 2 2 1 1 1 0 0 0 1 1 1 2 2 2 2 1 1 1 1 1 1 1 1 0 -0
-0 -0 1 4 5 5 5 5 5 5 5 5 4 4 3 3 2 2 2 1 1 0 -1 -0 -1 -0 -0 -0 0 1 0 0 0 -0 -1 -1 -1 -1 -1 -1 -2 -2 -2 -3
2 2 3 4 4 5 5 5 4 4 4 3 3 2 2 1 1 1 0 -0 -0 -1 -1 -1 -2 -2 -3 -2 -1 -1 -1 -2 -2 -2 -2 -3 -3 -3 -3 -4 -4 -5 -5 -5
3 3 3 3 3 3 3 3 3 2 2 1 1 1 0 -0 -0 -1 -1 -2 -2 -2 -2 -2 -2 -2 -3 -3 -3 -3 -3 -3 -3 -3 -4 -4 -4 -4 -4 -4 -5 -5 -7 -7
2 3 3 3 3 3 3 3 2 2 1 -1 -1 -1 -1 -1 -1 -1 -2 -2 -3 -3 -3 -4 -4 -4 -4 -4 -4 -4 -4 -4 -5 -5 -5 -5 -6 -6 -6 -7 -8 -8 -8 -8
2 2 2 2 2 2 2 2 1 0 -0 -1 -1 -1 -1 -2 -2 -2 -3 -3 -4 -4 -4 -5 -4 -4 -4 -5 -5 -5 -5 -6 -6 -6 -6 -6 -7 -8 -8 -8 -8 -8 -8 -7
1 1 1 0 -0 1 0 -0 -1 -1 -1 -1 -2 -2 -2 -3 -4 -4 -4 -5 -5 -5 -5 -5 -5 -5 -5 -6 -6 -7 -7 -7 -7 -7 -7 -7 -7 -8 -8 -9 -8 -8 -8 -8
0 0 0 -1 -1 -1 -1 -1 -2 -2 -2 -2 -3 -2 -4 -4 -4 -5 -5 -5 -5 -5 -6 -6 -6 -7 -7 -7 -7 -7 -7 -8 -8 -8 -8 -9 -9 -9 -9 -9 -9 -9 -9 -9
-1 -1 -1 -2 -2 -2 -2 -2 -2 -2 -4 -5 -5 -4 -5 -5 -6 -6 -6 -6 -7 -7 -7 -8 -8 -8 -8 -8 -8 -8 -9 -9 -9 -9 -9 -9 -9 -10 -10 -10 -10 -10 -10 -10
-2 -2 -2 -2 -2 -2 -2 -3 -4 -5 -5 -5 -5 -6 -6 -6 -6 -7 -7 -7 -8 -8 -8 -8 -8 -9 -9 -9 -9 -9 -9 -9 -10 -10 -10 -10 -11 -11 -11 -11 -11 -11 -11 -11
-2 -2 -2 -2 -2 -4 -4 -5 -5 -5 -5 -6 -6 -6 -6 -6 -7 -7 -8 -8 -8 -8 -9 -9 -9 -9 -9 -9 -9 -10 -10 -10 -10 -10 -10 -10 -11 -11 -11 -11 -11 -12 -11 -11
-2 -3 -3 -5 -5 -6 -5 -6 -6 -6 -6 -6 -6 -6 -7 -7 -8 -8 -8 -9 -9 -9 -9 -9 -9 -10 -10 -10 -10 -10 -10 -10 -10 -10 -10 -11 -11 -11 -11 -11 -11 -12 -12 -12
-4 -5 -6 -6 -5 -6 -6 -6 -6 -6 -6 -6 -7 -7 -8 -8 -8 -9 -9 -9 -9 -9 -10 -10 -10 -10 -10 -10 -10 -11 -11 -11 -11 -11 -11 -11 -11 -11 -12 -12 -12 -12 -12 -12
-7 -6 -6 -6 -6 -6 -6 -6 -6 -6 -6 -7 -8 -8 -9 -9 -9 -9 -9 -10 -10 -10 -10 -10 -10 -10 -10 -10 -11 -11 -12 -12 -12 -12 -12 -13 -13 -13 -13 -13 -13 -13 -13 -13
-7 -7 -6 -6 -6 -6 -6 -6 -7 -7 -8 -9 -9 -9 -9 -9 -10 -10 -10 -10 -10 -10 -10 -10 -11 -11 -11 -12 -12 -13 -13 -14 -14 -14 -15 -15 -16 -16 -16 -16 -15 -15 -15 -14
-7 -7 -7 -7 -6 -7 -7 -8 -8 -8 -9 -9 -9 -10 -10 -10 -10 -10 -10 -10 -10 -11 -11 -11 -12 -13 -13 -14 -15 -15 -16 -16 -17 -17 -18 -18 -19 -19 -19 -19 -18 -18 -17 -16
-7 -7 -7 -7 -7 -8 -8 -9 -9 -9 -9 -10 -10 -10 -10 -10 -11 -11 -11 -11 -11 -11 -12 -13 -14 -15 -15 -16 -17 -18 -19 -19 -20 -20 -20 -20 -20 -21 -21 -21 -21 -20 -20 -19
-7 -7 -8 -8 -9 -9 -9 -9 -9 -10 -10 -10 -10 -10 -11 -11 -11 -11 -11 -11 -12 -13 -14 -15 -16 -17 -18 -19 -20 -20 -21 -21 -21 -21 -21 -21 -21 -21 -21 -22 -22 -21 -21 -20
-8 -8 -9 -9 -9 -9 -10 -10 -10 -10 -10 -11 -11 -11 -11 -11 -11 -11 -12 -13 -14 -15 -16 -17 -18 -19 -20 -20 -20 -20 -20 -20 -21 -21 -21 -21 -21 -21 -21 -21 -21 -21 -21 -21
-8 -9 -9 -10 -10 -10 -10 -10 -11 -11 -11 -11 -11 -11 -11 -11 -11 -12 -13 -14 -15 -16 -17 -18 -19 -20 -20 -20 -20 -20 -20 -21 -21 -21 -21 -21 -21 -21 -21 -21 -21 -21 -21 -21
-9 -9 -10 -10 -10 -10 -10 -11 -11 -11 -11 -11 -11 -11 -11 -12 -12 -14 -15 -16 -17 -18 -18 -19 -20 -20 -20 -20 -20 -20 -20 -20 -21 -21 -21 -21 -21 -21 -21 -21 -21 -21 -21 -21

GFSNGP_700_temp_252.txt.gz
Temp
3 4 4 7 7 7 7 7 8 9 10 10 9 8 9 9 8 8 8 8 8 7 7 7 7 7 6 6 5 5 5 5 5 5 5 5 6 6 6 6 6 6 5 5
2 3 4 4 6 7 8 7 7 8 9 9 8 7 8 8 8 7 8 7 7 6 6 6 6 5 5 4 4 4 4 4 4 4 4 4 4 4 4 4 4 4 4 4
1 3 4 4 4 5 7 7 7 7 8 8 7 7 7 8 7 7 7 6 6 5 5 5 4 4 4 3 3 3 3 3 3 3 3 3 4 4 4 4 4 4 4 5
-1 2 1 3 3 4 5 6 6 7 7 8 7 7 7 7 7 6 6 5 5 4 4 3 3 3 2 2 2 2 3 3 2 2 2 2 3 4 4 4 4 5 5 5
-1 -0 2 3 4 5 5 5 6 6 6 7 6 6 6 6 6 6 5 4 4 3 3 2 2 2 2 2 2 1 1 1 2 1 1 1 2 3 3 3 4 4 4 4
-1 -1 1 4 4 4 4 4 6 6 6 7 6 5 5 6 5 4 3 3 3 3 2 2 1 1 1 0 0 1 1 1 0 1 1 1 2 2 2 2 2 2 3 2
-1 -1 2 3 4 4 3 4 6 6 6 5 3 4 5 4 4 3 2 2 2 2 1 1 0 0 -0 -0 -1 -0 0 0 -0 -0 0 0 0 0 0 0 0 -0 -0 -1
-2 -1 0 3 3 4 4 5 5 5 4 4 4 4 4 3 3 2 2 2 1 1 -0 -1 -1 -1 -1 -1 -1 -0 -1 -1 -1 -1 -1 -1 -1 -1 -2 -2 -3 -3 -3 -3
0 0 3 2 3 4 5 5 3 4 4 3 3 3 3 2 2 1 1 0 0 -1 -1 -2 -2 -2 -2 -2 -2 -2 -2 -2 -2 -3 -3 -3 -3 -4 -4 -4 -4 -4 -5 -5
1 2 2 3 3 4 4 4 4 2 1 3 3 2 2 1 0 -0 -1 -1 -1 -2 -2 -2 -3 -3 -3 -3 -3 -3 -3 -4 -4 -4 -4 -5 -5 -5 -5 -5 -6 -6 -6 -6
1 2 2 2 3 3 3 3 3 3 3 2 1 1 -0 -1 -1 -1 -1 -1 -2 -3 -4 -4 -4 -3 -4 -4 -4 -4 -5 -5 -5 -6 -6 -6 -6 -6 -6 -6 -6 -7 -7 -7
1 2 2 3 2 2 2 2 1 1 1 0 -0 -0 -0 -1 -2 -2 -2 -2 -3 -4 -4 -4 -4 -4 -4 -4 -5 -5 -5 -6 -6 -6 -6 -6 -6 -7 -7 -7 -7 -7 -8 -7
1 2 1 2 1 1 1 1 1 -1 -1 -1 -1 -1 -1 -2 -2 -3 -4 -4 -4 -4 -4 -4 -4 -5 -5 -5 -6 -6 -6 -7 -7 -7 -7 -7 -7 -8 -8 -9 -8 -8 -8 -8
1 1 1 1 1 -0 -1 -1 -2 -2 -1 -1 -2 -2 -2 -3 -4 -5 -5 -5 -5 -5 -5 -5 -5 -6 -6 -7 -7 -7 -7 -7 -8 -8 -8 -8 -8 -9 -9 -9 -9 -9 -9 -9
0 1 0 0 -0 -1 -1 -2 -2 -2 -2 -2 -2 -3 -4 -5 -5 -5 -5 -5 -5 -5 -6 -6 -7 -8 -8 -8 -8 -8 -8 -9 -9 -9 -9 -9 -9 -9 -9 -10 -10 -10 -10 -10
-0 -0 -0 -1 -1 -2 -2 -2 -2 -2 -3 -3 -4 -5 -5 -5 -5 -5 -6 -6 -6 -7 -8 -8 -8 -8 -8 -9 -9 -9 -9 -9 -9 -9 -9 -10 -10 -10 -10 -11 -11 -11 -11 -11
-1 -1 -1 -2 -2 -2 -2 -2 -3 -4 -5 -5 -6 -6 -6 -6 -6 -6 -7 -7 -8 -8 -8 -9 -9 -9 -9 -9 -9 -9 -9 -9 -10 -10 -10 -10 -10 -10 -11 -11 -11 -11 -11 -12
-2 -2 -2 -2 -3 -2 -3 -4 -6 -6 -6 -6 -6 -6 -7 -7 -7 -8 -8 -8 -9 -9 -9 -9 -9 -9 -9 -10 -10 -10 -10 -10 -10 -11 -11 -11 -11 -12 -12 -12 -12 -12 -12 -12
-2 -3 -3 -2 -3 -5 -6 -6 -6 -6 -6 -6 -6 -7 -7 -8 -8 -9 -9 -9 -9 -9 -9 -10 -10 -10 -10 -10 -10 -10 -11 -11 -12 -12 -13 -13 -13 -14 -14 -14 -14 -14 -14 -14
-3 -4 -4 -5 -7 -6 -6 -6 -6 -6 -6 -7 -7 -8 -8 -9 -9 -9 -9 -9 -10 -10 -10 -10 -10 -10 -10 -11 -11 -12 -13 -13 -14 -14 -15 -15 -16 -17 -17 -17 -17 -17 -17 -16
-5 -6 -7 -7 -6 -6 -6 -6 -7 -7 -7 -8 -8 -9 -9 -9 -9 -9 -9 -10 -10 -10 -10 -10 -10 -11 -12 -12 -13 -14 -15 -16 -16 -17 -18 -18 -19 -19 -20 -20 -20 -20 -19 -18
-7 -7 -7 -6 -6 -6 -6 -7 -7 -8 -9 -9 -9 -9 -9 -9 -9 -10 -10 -10 -10 -10 -11 -11 -12 -12 -13 -14 -15 -17 -18 -19 -19 -20 -20 -20 -20 -21 -21 -21 -21 -21 -21 -20
-7 -7 -7 -7 -6 -7 -7 -8 -8 -9 -9 -9 -9 -9 -10 -10 -10 -10 -10 -10 -11 -12 -12 -12 -13 -14 -16 -17 -18 -19 -19 -20 -20 -20 -20 -20 -21 -21 -21 -21 -21 -21 -21 -21
-7 -7 -7 -7 -7 -8 -8 -9 -9 -9 -9 -10 -10 -10 -10 -10 -10 -10 -11 -11 -12 -12 -13 -14 -16 -17 -18 -18 -19 -19 -19 -20 -20 -20 -20 -20 -21 -21 -21 -21 -21 -22 -21 -21
-7 -7 -8 -8 -9 -9 -9 -10 -10 -10 -10 -10 -10 -10 -11 -11 -11 -11 -11 -12 -13 -14 -15 -16 -17 -18 -18 -19 -19 -19 -19 -20 -20 -20 -20 -20 -20 -20 -21 -21 -21 -21 -21 -21
-8 -8 -9 -10 -10 -10 -10 -10 -10 -10 -10 -11 -11 -11 -11 -11 -11 -12 -12 -13 -14 -15 -16 -17 -18 -19 -19 -19 -19 -19 -20 -20 -20 -20 -20 -21 -21 -21 -21 -21 -21 -21 -21 -21
-9 -9 -9 -10 -10 -10 -11 -11 -11 -11 -11 -11 -11 -11 -11 -11 -12 -12 -13 -14 -15 -16 -17 -18 -19 -19 -19 -19 -19 -20 -20 -20 -20 -20 -20 -21 -21 -21 -21 -21 -21 -22 -22 -22

GFSNGP_700_temp_258.txt.gz
Temp
-3 -2 -2 -1 1 4 5 5 4 5 5 6 8 9 10 10 10 10 10 10 10 9 7 7 8 7 7 7 7 7 7 6 6 6 6 5 4 4 3 4 3 3 3 3
-4 -3 -2 -3 1 3 4 5 6 6 6 8 7 8 8 10 9 8 8 8 8 7 7 7 7 7 6 6 6 6 5 5 5 4 4 3 3 3 3 2 2 2 3 3
-5 -3 -3 -3 1 2 3 4 5 5 5 6 7 8 8 9 8 8 7 8 6 6 6 7 6 6 6 6 5 5 4 4 3 3 3 3 2 2 2 2 2 2 2 2
-6 -5 -5 -2 0 1 1 2 4 5 5 6 6 7 8 5 8 7 6 5 5 5 6 6 6 5 5 5 4 3 3 3 3 3 2 1 1 1 1 1 1 1 1 1
-6 -5 -4 -3 2 2 2 1 4 4 5 5 6 6 6 6 5 6 5 4 4 5 6 5 5 4 3 3 2 2 3 2 2 1 1 0 -0 -0 0 0 1 1 1 1
-5 -5 -4 -1 1 1 -2 1 4 4 4 5 5 5 4 5 4 4 5 5 5 6 5 4 4 3 2 2 2 2 2 1 0 0 -0 -1 -0 -0 -0 -0 -0 -0 -1 -1
-5 -5 -4 -1 -1 -1 -2 -1 4 3 4 5 5 5 5 5 5 3 4 4 4 4 4 3 2 2 2 2 2 2 1 0 -0 -1 -1 -1 -1 -1 -1 -1 -2 -2 -3 -3
-5 -5 -5 -3 -2 -2 -0 0 1 2 4 5 5 5 4 4 2 2 4 4 4 3 2 2 2 1 2 1 0 -0 -0 -1 -1 -1 -2 -2 -2 -2 -3 -3 -4 -4 -4 -4
-6 -6 -5 -4 -4 -3 -1 -3 0 -1 1 5 5 5 4 4 3 1 0 2 2 2 0 -1 0 1 0 -1 -1 -1 -1 -2 -2 -2 -3 -3 -3 -4 -4 -4 -5 -5 -5 -5
-7 -6 -5 -6 -6 -5 -2 -4 -0 0 0 4 4 4 3 2 1 0 -0 1 -0 -1 -1 -0 -0 -1 -2 -2 -2 -2 -2 -3 -3 -3 -4 -4 -5 -5 -5 -5 -5 -5 -6 -6
-8 -7 -7 -6 -6 -6 -4 -2 -2 0 1 3 3 3 2 1 0 -0 -1 -1 -1 -0 -1 -1 -2 -2 -3 -3 -3 -3 -3 -4 -4 -5 -5 -5 -6 -6 -6 -6 -6 -6 -6 -7
-8 -6 -7 -6 -6 -6 -5 -2 -1 -0 1 2 2 2 2 2 -1 -1 -1 -1 -2 -2 -2 -2 -2 -4 -4 -4 -4 -4 -5 -5 -6 -6 -6 -6 -6 -7 -7 -7 -8 -8 -8 -8
-8 -8 -8 -8 -8 -6 -4 -3 -2 0 0 2 2 1 1 0 -0 -1 -2 -2 -2 -2 -2 -4 -6 -4 -4 -5 -5 -5 -6 -6 -6 -7 -7 -7 -7 -7 -7 -7 -8 -8 -8 -9
-8 -8 -8 -7 -6 -6 -5 -3 -2 -2 0 1 -0 -0 -1 -1 -1 -2 -2 -2 -3 -4 -5 -5 -5 -5 -5 -6 -6 -7 -7 -7 -7 -7 -7 -7 -7 -8 -8 -8 -8 -9 -9 -10
-7 -7 -8 -7 -6 -4 -2 -4 -3 0 -0 -0 -1 -1 -1 -2 -2 -2 -3 -4 -4 -6 -5 -5 -6 -6 -6 -7 -7 -7 -7 -7 -7 -8 -8 -8 -9 -9 -9 -9 -10 -10 -10 -11
-6 -7 -7 -6 -4 -3 -3 -3 -1 0 -0 -1 -1 -2 -2 -2 -3 -4 -5 -6 -5 -5 -6 -6 -7 -7 -7 -7 -7 -7 -8 -8 -8 -9 -9 -9 -10 -10 -11 -11 -12 -12 -13 -13
-8 -7 -5 -4 -3 -4 -3 -2 -1 -1 -1 -2 -2 -2 -3 -4 -4 -6 -5 -5 -6 -6 -7 -7 -7 -7 -7 -7 -8 -8 -9 -9 -9 -9 -10 -11 -12 -13 -13 -14 -14 -15 -16 -16
-7 -5 -3 -3 -2 -2 -2 -2 -2 -2 -2 -2 -3 -4 -4 -6 -6 -5 -6 -6 -7 -7 -7 -7 -7 -8 -8 -8 -9 -9 -9 -10 -10 -11 -12 -13 -14 -15 -16 -17 -17 -18 -18 -18
-6 -4 -3 -3 -3 -2 -2 -2 -3 -3 -4 -5 -5 -6 -7 -6 -6 -6 -7 -7 -7 -7 -8 -8 -8 -9 -9 -9 -9 -10 -11 -12 -13 -13 -14 -15 -16 -17 -18 -18 -19 -19 -20 -20
-5 -4 -4 -3 -3 -3 -3 -4 -5 -5 -7 -7 -6 -6 -6 -6 -7 -7 -7 -8 -8 -8 -8 -9 -9 -9 -9 -10 -11 -12 -13 -13 -14 -15 -16 -17 -18 -19 -19 -19 -20 -20 -21 -21
-5 -5 -5 -5 -6 -6 -6 -7 -9 -9 -8 -7 -7 -7 -7 -7 -7 -8 -8 -8 -8 -9 -9 -9 -9 -10 -11 -12 -13 -13 -14 -15 -16 -17 -17 -18 -19 -19 -19 -19 -20 -20 -21 -21
-7 -7 -7 -7 -7 -8 -8 -8 -8 -7 -7 -7 -8 -8 -8 -8 -8 -8 -9 -9 -9 -9 -9 -10 -11 -11 -12 -13 -14 -15 -16 -17 -17 -18 -18 -19 -19 -19 -19 -19 -20 -20 -20 -21
-8 -9 -8 -8 -8 -7 -7 -7 -7 -8 -8 -8 -8 -8 -8 -9 -9 -9 -9 -9 -9 -10 -10 -11 -12 -13 -13 -15 -16 -17 -17 -17 -18 -18 -19 -19 -19 -19 -19 -20 -20 -20 -20 -21
-9 -8 -8 -8 -8 -8 -7 -8 -9 -9 -9 -9 -9 -9 -9 -9 -9 -9 -9 -10 -10 -11 -11 -12 -13 -14 -16 -16 -16 -17 -18 -18 -19 -19 -19 -19 -19 -20 -20 -20 -20 -21 -21 -21
-8 -8 -8 -8 -8 -9 -9 -9 -9 -9 -9 -9 -9 -9 -9 -10 -9 -10 -10 -10 -11 -12 -12 -13 -14 -16 -16 -16 -17 -18 -18 -18 -19 -19 -19 -19 -19 -20 -20 -20 -20 -21 -21 -21
-8 -8 -8 -9 -9 -9 -9 -9 -9 -10 -10 -10 -10 -10 -10 -10 -10 -10 -11 -11 -12 -13 -13 -14 -15 -16 -16 -17 -17 -18 -18 -19 -19 -19 -19 -19 -20 -20 -20 -20 -20 -21 -21 -21
-8 -9 -9 -9 -9 -10 -10 -10 -10 -10 -10 -10 -10 -10 -10 -10 -10 -11 -11 -12 -13 -13 -14 -15 -16 -16 -16 -17 -17 -18 -18 -19 -19 -19 -20 -20 -20 -20 -20 -20 -21 -21 -21 -21

GFSNGP_700_temp_264.txt.gz
Temp
-4 -4 -4 -4 -4 -3 -4 -3 -3 -2 -1 0 -1 0 1 3 3 3 1 2 4 5 7 7 7 5 5 6 6 7 7 7 7 6 6 6 6 6 5 5 5 5 5 5
-4 -4 -4 -4 -4 -4 -4 -2 -3 -2 -2 -2 -1 0 1 2 4 3 3 4 3 5 5 6 7 7 5 6 5 5 5 6 6 5 5 4 4 4 4 4 4 4 3 3
-5 -5 -5 -5 -3 -3 -3 -3 -3 -2 -3 -3 -2 -1 -0 1 1 3 3 3 5 5 5 5 5 5 5 5 4 5 4 4 4 4 4 3 3 3 3 3 3 2 2 2
-7 -6 -8 -4 -4 -4 -4 -4 -3 -3 -3 -4 -4 -3 -1 -0 2 2 3 1 3 4 4 4 3 3 3 3 3 3 3 3 3 3 2 2 2 2 2 2 2 1 1 1
-7 -7 -6 -5 -4 -5 -5 -5 -5 -4 -4 -4 -4 -3 -2 0 1 1 3 4 1 3 4 3 3 2 2 -0 0 2 2 2 2 1 2 2 2 2 1 1 1 0 0 0
-7 -8 -10 -3 -5 -6 -6 -6 -5 -5 -5 -5 -4 -4 -3 -0 1 2 2 3 2 3 3 3 3 3 1 1 -1 0 1 1 1 1 2 2 1 1 0 -0 -0 -0 -1 -1
-8 -8 -7 -6 -5 -6 -6 -5 -5 -5 -5 -5 -6 -6 -5 -4 -1 -0 1 2 1 2 3 3 3 2 2 -1 -1 -1 -1 0 1 1 2 1 1 -0 -1 -1 -1 -2 -2 -2
-7 -7 -8 -7 -6 -6 -6 -5 -5 -5 -5 -6 -5 -5 -5 -4 -3 -3 -2 0 0 2 3 2 2 1 0 -0 -1 -1 -1 -0 0 1 0 0 -1 -1 -2 -2 -3 -3 -3 -4
-9 -8 -7 -7 -7 -7 -6 -5 -5 -6 -6 -6 -6 -5 -5 -3 -2 -4 -3 -1 0 1 1 2 1 0 -0 -1 -2 -2 -2 -1 -1 -0 -2 -2 -2 -3 -3 -4 -4 -4 -4 -4
-9 -7 -7 -7 -7 -7 -6 -6 -6 -6 -6 -6 -6 -6 -5 -4 -3 -3 -4 -3 -0 0 0 0 1 -1 -2 -2 -1 -2 -2 -2 -2 -3 -3 -3 -4 -4 -5 -4 -5 -5 -5 -5
-10 -8 -6 -6 -6 -6 -6 -6 -6 -6 -7 -6 -6 -6 -5 -4 -3 -2 -4 -3 -1 0 0 -0 -2 -2 -2 -1 -1 -2 -2 -3 -4 -4 -4 -5 -5 -5 -5 -5 -5 -6 -6 -6
-8 -7 -8 -7 -6 -7 -7 -6 -6 -7 -6 -6 -6 -5 -4 -2 -1 -1 -3 -3 -3 -1 -1 -1 -1 -2 -2 -2 -3 -5 -5 -4 -5 -5 -5 -6 -6 -6 -6 -6 -7 -7 -7 -8
-8 -8 -8 -9 -8 -7 -7 -7 -7 -7 -8 -6 -6 -5 -5 -4 -3 -4 -3 -4 -3 -2 -2 -2 -3 -3 -3 -4 -4 -5 -5 -6 -6 -6 -6 -6 -6 -6 -7 -7 -7 -8 -9 -10
-10 -10 -10 -8 -8 -8 -8 -8 -8 -8 -8 -7 -7 -8 -7 -6 -5 -5 -4 -3 -3 -3 -2 -3 -3 -4 -6 -5 -5 -5 -6 -6 -6 -6 -7 -7 -7 -7 -8 -8 -9 -10 -11 -11
-9 -9 -9 -8 -9 -8 -9 -9 -8 -8 -7 -8 -8 -7 -6 -5 -5 -4 -4 -4 -3 -3 -4 -4 -6 -6 -6 -6 -6 -6 -6 -6 -6 -7 -7 -8 -8 -9 -10 -11 -11 -12 -13 -14
-8 -8 -8 -9 -8 -8 -8 -8 -9 -8 -8 -8 -8 -6 -6 -5 -5 -5 -5 -4 -4 -4 -4 -7 -6 -6 -6 -6 -6 -6 -6 -6 -7 -8 -9 -10 -10 -11 -12 -13 -14 -15 -15 -16
-7 -7 -7 -8 -9 -8 -8 -8 -9 -9 -8 -8 -8 -7 -6 -5 -6 -6 -5 -5 -5 -7 -6 -6 -6 -7 -7 -7 -6 -7 -7 -8 -8 -9 -11 -11 -12 -13 -14 -15 -15 -16 -17 -18
-6 -6 -7 -7 -8 -8 -8 -9 -9 -9 -8 -8 -7 -7 -7 -6 -6 -6 -5 -7 -8 -7 -7 -7 -7 -7 -7 -7 -7 -8 -8 -9 -10 -11 -12 -13 -14 -14 -15 -16 -17 -18 -18 -19
-7 -6 -5 -4 -7 -8 -8 -8 -8 -8 -7 -8 -8 -7 -8 -8 -7 -8 -8 -7 -7 -7 -7 -7 -7 -7 -7 -8 -8 -9 -10 -11 -12 -12 -13 -14 -15 -16 -17 -17 -18 -18 -18 -19
-8 -6 -6 -6 -6 -7 -7 -6 -6 -7 -8 -8 -8 -8 -7 -8 -9 -8 -7 -7 -7 -7 -7 -7 -8 -8 -9 -9 -10 -10 -11 -12 -13 -13 -14 -15 -16 -17 -18 -18 -18 -18 -19 -19
-8 -8 -7 -7 -7 -7 -7 -8 -8 -8 -9 -9 -10 -10 -10 -9 -9 -8 -8 -8 -7 -8 -8 -8 -9 -10 -10 -10 -11 -11 -12 -13 -13 -14 -15 -16 -17 -17 -18 -18 -19 -19 -19 -19
-8 -8 -8 -8 -8 -8 -8 -9 -9 -9 -9 -10 -11 -9 -9 -8 -9 -8 -8 -8 -8 -8 -9 -10 -11 -10 -10 -11 -12 -12 -13 -13 -14 -15 -16 -17 -17 -18 -18 -19 -19 -19 -19 -20
-8 -8 -8 -8 -8 -8 -9 -9 -9 -9 -9 -10 -9 -9 -9 -9 -8 -9 -9 -9 -9 -10 -11 -11 -11 -11 -11 -12 -12 -13 -14 -14 -15 -16 -16 -17 -18 -18 -19 -19 -19 -19 -20 -20
-9 -9 -9 -9 -9 -9 -8 -9 -9 -9 -9 -9 -9 -9 -9 -9 -9 -9 -9 -9 -10 -11 -11 -11 -11 -12 -12 -13 -13 -14 -14 -15 -16 -17 -17 -18 -18 -19 -19 -19 -20 -20 -20 -20
-9 -9 -9 -9 -9 -9 -9 -9 -9 -9 -9 -9 -9 -9 -9 -9 -10 -10 -10 -10 -11 -11 -11 -11 -12 -12 -13 -14 -14 -15 -15 -16 -17 -17 -18 -18 -19 -19 -19 -20 -20 -20 -20 -20
-9 -9 -9 -9 -10 -10 -10 -10 -10 -10 -10 -10 -10 -10 -10 -10 -10 -10 -10 -11 -11 -12 -12 -12 -12 -13 -14 -14 -15 -15 -16 -17 -17 -18 -18 -19 -19 -19 -20 -20 -20 -20 -20 -20
-9 -9 -9 -9 -10 -10 -10 -10 -10 -10 -10 -10 -10 -10 -10 -10 -11 -11 -11 -11 -12 -12 -12 -13 -13 -14 -14 -15 -15 -16 -17 -17 -18 -18 -19 -19 -19 -20 -20 -20 -20 -20 -21 -21